Regional Weather Roundup
Issued by NWS

Home | Current Version | Previous Version | Graphics & Text | Print | Product List | Glossary On
Versions: 1 2 3 4 5 6 7 8 9 10 11 12 13 14 15 16 17 18 19 20 21 22 23 24 25 26 27 28 29 30 31 32 33 34 35 36 37 38 39 40 41 42 43 44 45 46 47 48 49 50
000
ASUS45 KTFX 161410
RWRMT
MONTANA REGIONAL WEATHER ROUNDUP
NATIONAL WEATHER SERVICE GREAT FALLS MT
800 AM MDT WED AUG 16 2017

NOTE: "FAIR" INDICATES FEW OR NO CLOUDS BELOW 12000 FEET WITH NO
SIGNIFICANT WEATHER AND/OR OBSTRUCTIONS TO VISIBILITY.

MTZ001>007-043-161500-
WEST OF THE DIVIDE

CITY           SKY/WX    TMP DP  RH WIND       PRES   REMARKS
KALISPELL      SUNNY     48  44  86 CALM      30.01R
MISSOULA       SUNNY     48  36  63 CALM      30.07R
BUTTE          SUNNY     43  31  62 E3        30.14R
MULLAN PASS    SUNNY     52  28  39 NW3       30.13R
ANACONDA         N/A     52  34  50 SW3       30.11R
DEER LODGE       N/A     46  36  66 CALM      30.13R
EUREKA           N/A     50  37  62 MISG      30.01R
HAMILTON         N/A     50  39  66 CALM      30.08R
LIBBY            N/A     46  37  71 SE3       30.01R
PLAINS           N/A     46  36  68 CALM      30.03R
RONAN            N/A     50  43  77 CALM      30.05S
THOMPSON FALLS   N/A     46  36  68 CALM      30.07R
$$

MTZ008-052>055-161500-
SOUTHWEST MONTANA

CITY           SKY/WX    TMP DP  RH WIND       PRES   REMARKS
BOZEMAN        SUNNY     53  42  66 SE3       30.07R
DILLON         SUNNY     48  40  73 SW6       30.10R
W YELLOWSTONE  SUNNY     39  37  93 CALM      30.22R
ENNIS          SUNNY     52  46  82 W5        30.15S
THREE FORKS      N/A     46  40  79 CALM      30.05R
TWIN BRIDGES     N/A     48  40  74 CALM      30.08R
$$

MTZ009-010-012-014-046-048-049-054-161500-
EAST SLOPES AND CENTRAL MONTANA

CITY           SKY/WX    TMP DP  RH WIND       PRES   REMARKS
CUT BANK       SUNNY     55  37  50 NW5       29.98R
GREAT FALLS    SUNNY     55  30  38 W7        30.00R
MALMSTROM AFB  SUNNY     55  33  43 SW5       30.00R
HELENA         SUNNY     53  34  48 CALM      30.05R
AUGUSTA          N/A     60  28  29 W10       30.02R
BOWMANS CRNR     N/A     51  29  42 SW7       30.01R
CHOTEAU          N/A     55  34  44 SW8       30.01S
FAIRFIELD        N/A     55  35  45 CALM      29.99R
POWER            N/A     57  33  40 W5        29.99R
RAYNESFORD       N/A     50  36  60 CALM      30.02R
ULM              N/A     56  32  39 S5        30.00R
$$

MTZ011-013-016-021-045-047-050-051-161500-
NORTH CENTRAL MONTANA

CITY           SKY/WX    TMP DP  RH WIND       PRES   REMARKS
HAVRE          SUNNY     50  39  66 SW5       29.94R
LEWISTOWN      SUNNY     54  42  64 SE3       30.00R
N BAR RANCH      N/A     55  43  62 W5        30.03S
CHINOOK          N/A     52  43  71 W5        29.93S
DENTON           N/A     54  38  54 S8        29.95R
GEYSER           N/A     61  31  32 W14G20    29.99R
GRASS RANGE      N/A     56  43  61 W6        29.95R
JUDITH GAP       N/A     59  43  55 S10       30.02S
WINIFRED         N/A     57  41  56 W8        29.97R
$$

MTZ017>020-022>027-061-062-161500-
NORTHEAST MONTANA

CITY           SKY/WX    TMP DP  RH WIND       PRES   REMARKS
GLASGOW        SUNNY     61  49  64 E10       29.93S
JORDAN           N/A     56  39  53 CALM      29.95S
SIDNEY         FOG       56  55  97 VRB3      29.96S VSB 1/4
WOLF POINT     SUNNY     56  50  80 E5        29.95S
MALTA          SUNNY     55  43  62 E5        29.93S
PLENTYWOOD       N/A     57  52  82 CALM      29.97S
POPLAR           N/A     59  54  82 N3        29.95S
SCOBEY           N/A     49  44  83 CALM      29.96R
$$

MTZ028>42-056>058-161500-
SOUTHCENTRAL AND SOUTHEAST MONTANA

CITY           SKY/WX    TMP DP  RH WIND       PRES   REMARKS
BAKER          SUNNY     56  56 100 CALM      30.00R
BILLINGS       MOSUNNY   59  45  59 SW10      30.00R
LIVINGSTON     SUNNY     50  38  63 NW7       30.06R
MILES CITY     SUNNY     58  45  62 SE8       29.96S
BIG TIMBER     SUNNY     59  41  51 SW8       30.07S
EKALAKA          N/A     59  53  80 SE3       29.99S
FORSYTH          N/A     61  48  63 CALM      29.96S
HARLOWTON        N/A     51  38  60 MISG      30.03R
LAUREL           N/A     58  44  59 S5        29.99F
$$

REGIONAL REPORTS...DAKOTAS

CITY           SKY/WX    TMP DP  RH WIND       PRES   REMARKS
WILLISTON      FOG       59  57  93 CALM      29.96R VSB 1/4
MINOT          FOG       58  57  97 W5        29.92S VSB 1/4
DICKINSON      SUNNY     58  58 100 NW8       29.96R
BEACH            N/A     57  57 100 CALM      30.02R
CROSBY           N/A     57  59 100 CALM      29.96S
TIOGA            N/A     57  57 100 CALM      29.97S
WATFORD CITY   FOG       55  55 100 CALM      29.96R VSB<1/4
BISMARCK       CLOUDY    62  59  90 N10       29.92R
GRAND FORKS    LGT RAIN  64  64 100 E6        29.85S FOG
FARGO          CLOUDY    65  64  97 SE7       29.84S
BUFFALO SD       N/A     58  56  93 W5        29.94R
RAPID CITY     CLOUDY    61  54  77 N14       29.99R
$$

REGIONAL REPORTS...WYOMING/IDAHO/WASHINGTON

CITY           SKY/WX    TMP DP  RH WIND       PRES   REMARKS
GILLETTE       SUNNY     62  47  57 SW9       30.06R
SHERIDAN       SUNNY     56  48  74 CALM      30.03S
BUFFALO WY     SUNNY     65  33  30 W6        30.08S
CODY           SUNNY     61  42  49 SW5       30.10R
YELLOWSTONE LA   N/A     40  38  93 CALM      30.28R
IDAHO FALLS    SUNNY     49  46  90 N3        30.10R
SALMON         MOSUNNY   49  41  74 CALM      30.09R
BOISE          SUNNY     59  37  44 S5        29.99R
SPOKANE        MOSUNNY   56  38  50 S8        29.99R
$$

REGIONAL REPORTS...ALBERTA

CITY           SKY/WX    TMP DP  RH WIND       PRES   REMARKS
EDMONTON       PTSUNNY   55  50  82 SW3       29.87S
CALGARY        PTSUNNY   50  43  76 CALM      29.93S SMOKE
LETHBRIDGE     MOSUNNY   52  41  66 SW7       29.93R
MEDICINE HAT   SUNNY     48  45  87 CALM      29.91S
$$

REGIONAL REPORTS...SASKATCHEWAN

CITY           SKY/WX    TMP DP  RH WIND       PRES   REMARKS
SWIFT CURRENT  PTSUNNY   57  46  67 SW3       29.95S
REGINA         SUNNY     54  48  82 VRB2      29.95R
SASKATOON      MOSUNNY   55  48  76 W10       29.91R
$$



USA.gov is the U.S. government's official web portal to all federal, state and local government web resources and services.